Time,TemperatureF,DewpointF,PressureIn,WindDirection,WindDirectionDegrees,WindSpeedMPH,WindSpeedGustMPH,Humidity,HourlyPrecipIn,Conditions,Clouds,dailyrainin,SoftwareType,DateUTC
2013-06-15 00:01:00,65.5,57.0,29.99,WSW,246,0.0,0.0,74,0.00,,---,0.02,VWS V14.01,2013-06-15 04:01:00,
2013-06-15 00:03:00,65.4,56.9,29.99,WSW,246,0.0,0.0,74,0.00,,---,0.00,VWS V14.01,2013-06-15 04:03:00,
2013-06-15 00:09:00,65.3,56.8,29.99,WSW,246,0.0,0.0,74,0.00,,---,0.00,VWS V14.01,2013-06-15 04:09:00,
2013-06-15 00:14:00,65.2,56.7,29.99,WSW,246,0.0,0.0,74,0.00,,---,0.00,VWS V14.01,2013-06-15 04:14:00,
2013-06-15 00:19:00,65.1,56.6,29.98,WSW,246,0.0,0.0,74,0.00,,---,0.00,VWS V14.01,2013-06-15 04:19:00,
2013-06-15 00:24:00,65.0,56.9,29.98,WSW,246,0.0,0.0,75,0.00,,---,0.00,VWS V14.01,2013-06-15 04:24:00,
2013-06-15 00:29:00,64.9,56.8,29.98,WSW,246,0.0,0.0,75,0.00,,---,0.00,VWS V14.01,2013-06-15 04:29:00,
2013-06-15 00:34:00,64.7,56.6,29.98,WSW,246,0.0,0.0,75,0.00,,---,0.00,VWS V14.01,2013-06-15 04:34:00,
2013-06-15 00:39:00,64.7,56.6,29.99,WSW,246,0.0,0.0,75,0.00,,---,0.00,VWS V14.01,2013-06-15 04:39:00,
2013-06-15 00:44:00,64.7,57.3,29.99,WSW,246,0.0,0.0,77,0.00,,---,0.00,VWS V14.01,2013-06-15 04:44:00,
2013-06-15 00:49:00,64.6,56.9,29.99,WSW,246,0.0,0.0,76,0.00,,---,0.00,VWS V14.01,2013-06-15 04:49:00,
2013-06-15 00:54:00,64.5,56.8,29.99,WSW,246,0.0,0.0,76,0.00,,---,0.00,VWS V14.01,2013-06-15 04:54:00,
2013-06-15 00:59:00,64.5,57.1,29.99,ESE,117,0.0,0.0,77,0.00,,---,0.00,VWS V14.01,2013-06-15 04:59:00,
2013-06-15 01:04:00,64.5,57.1,29.99,ESE,117,0.0,0.0,77,0.00,,---,0.00,VWS V14.01,2013-06-15 05:04:00,
2013-06-15 01:10:00,64.7,56.6,29.99,WSW,251,0.0,1.0,75,0.00,,---,0.00,VWS V14.01,2013-06-15 05:10:00,
2013-06-15 01:15:00,64.9,56.4,29.99,WSW,251,0.0,1.0,74,0.00,,---,0.00,VWS V14.01,2013-06-15 05:15:00,
2013-06-15 01:20:00,65.2,57.1,29.99,WSW,250,0.0,1.0,75,0.00,,---,0.00,VWS V14.01,2013-06-15 05:20:00,
2013-06-15 01:25:00,65.4,56.9,29.99,SW,215,0.0,1.0,74,0.00,,---,0.00,VWS V14.01,2013-06-15 05:25:00,
2013-06-15 01:30:00,65.5,57.0,29.99,SW,216,0.0,1.0,74,0.00,,---,0.00,VWS V14.01,2013-06-15 05:30:00,
2013-06-15 01:35:00,65.6,57.1,29.99,SW,235,0.0,0.0,74,0.00,,---,0.00,VWS V14.01,2013-06-15 05:35:00,
2013-06-15 01:40:00,65.7,57.6,29.99,West,264,0.0,1.0,75,0.00,,---,0.00,VWS V14.01,2013-06-15 05:40:00,
2013-06-15 01:45:00,65.7,56.8,29.99,WSW,239,0.0,2.0,73,0.00,,---,0.00,VWS V14.01,2013-06-15 05:45:00,
2013-06-15 01:50:00,65.8,57.3,29.99,WSW,239,0.0,2.0,74,0.00,,---,0.00,VWS V14.01,2013-06-15 05:50:00,
2013-06-15 01:56:00,65.7,56.8,29.99,SSW,212,0.0,2.0,73,0.00,,---,0.00,VWS V14.01,2013-06-15 05:56:00,
2013-06-15 02:01:00,65.7,57.2,30.00,SW,214,0.0,2.0,74,0.00,,---,0.00,VWS V14.01,2013-06-15 06:01:00,
2013-06-15 02:06:00,65.7,57.2,30.00,ESE,110,0.0,1.0,74,0.00,,---,0.00,VWS V14.01,2013-06-15 06:06:00,
2013-06-15 02:11:00,65.7,56.8,30.00,ESE,110,0.0,1.0,73,0.00,,---,0.00,VWS V14.01,2013-06-15 06:11:00,
2013-06-15 02:16:00,65.6,57.1,30.00,ESE,110,0.0,1.0,74,0.00,,---,0.00,VWS V14.01,2013-06-15 06:16:00,
2013-06-15 02:21:00,65.5,57.4,30.00,ESE,110,0.0,1.0,75,0.00,,---,0.00,VWS V14.01,2013-06-15 06:21:00,
2013-06-15 02:26:00,65.4,57.3,30.00,WSW,250,0.0,1.0,75,0.00,,---,0.00,VWS V14.01,2013-06-15 06:26:00,
2013-06-15 02:31:00,65.3,56.8,30.00,WSW,253,0.0,1.0,74,0.00,,---,0.00,VWS V14.01,2013-06-15 06:31:00,
2013-06-15 02:36:00,65.3,57.2,30.00,WSW,253,0.0,0.0,75,0.00,,---,0.00,VWS V14.01,2013-06-15 06:36:00,
2013-06-15 02:41:00,65.1,57.0,30.00,WSW,250,0.0,1.0,75,0.00,,---,0.00,VWS V14.01,2013-06-15 06:41:00,
2013-06-15 02:46:00,65.0,56.9,30.00,WSW,248,0.0,1.0,75,0.00,,---,0.00,VWS V14.01,2013-06-15 06:46:00,
2013-06-15 02:52:00,64.9,56.8,30.00,WSW,247,0.0,1.0,75,0.00,,---,0.00,VWS V14.01,2013-06-15 06:52:00,
2013-06-15 02:57:00,64.9,57.2,29.99,WSW,248,0.0,1.0,76,0.00,,---,0.00,VWS V14.01,2013-06-15 06:57:00,
2013-06-15 03:02:00,64.8,57.1,29.99,WSW,248,0.0,0.0,76,0.00,,---,0.00,VWS V14.01,2013-06-15 07:02:00,
2013-06-15 03:07:00,64.7,57.3,29.99,SW,236,0.0,1.0,77,0.00,,---,0.00,VWS V14.01,2013-06-15 07:07:00,
2013-06-15 03:12:00,64.7,57.0,29.99,WSW,256,0.0,1.0,76,0.00,,---,0.00,VWS V14.01,2013-06-15 07:12:00,
2013-06-15 03:17:00,64.7,56.6,29.99,SW,228,0.0,2.0,75,0.00,,---,0.00,VWS V14.01,2013-06-15 07:17:00,
2013-06-15 03:22:00,64.8,56.7,29.99,WSW,243,0.0,2.0,75,0.00,,---,0.00,VWS V14.01,2013-06-15 07:22:00,
2013-06-15 03:27:00,64.7,56.6,30.00,WSW,243,0.0,2.0,75,0.00,,---,0.00,VWS V14.01,2013-06-15 07:27:00,
2013-06-15 03:32:00,64.5,56.8,30.00,WSW,242,0.0,1.0,76,0.00,,---,0.00,VWS V14.01,2013-06-15 07:32:00,
2013-06-15 03:37:00,64.3,56.6,30.00,WSW,242,0.0,1.0,76,0.00,,---,0.00,VWS V14.01,2013-06-15 07:37:00,
2013-06-15 03:43:00,64.1,56.8,29.99,WSW,240,0.0,1.0,77,0.00,,---,0.00,VWS V14.01,2013-06-15 07:43:00,
2013-06-15 03:48:00,63.9,56.6,30.00,WSW,240,0.0,1.0,77,0.00,,---,0.00,VWS V14.01,2013-06-15 07:48:00,
2013-06-15 03:53:00,63.8,56.5,30.00,WSW,241,0.0,1.0,77,0.00,,---,0.00,VWS V14.01,2013-06-15 07:53:00,
2013-06-15 03:58:00,63.7,56.4,30.00,SSW,210,0.0,2.0,77,0.00,,---,0.00,VWS V14.01,2013-06-15 07:58:00,
2013-06-15 04:03:00,63.7,56.4,30.01,South,176,0.0,0.0,77,0.00,,---,0.00,VWS V14.01,2013-06-15 08:03:00,
2013-06-15 04:08:00,63.7,56.4,30.01,South,174,0.0,0.0,77,0.00,,---,0.00,VWS V14.01,2013-06-15 08:08:00,
2013-06-15 04:13:00,63.5,56.2,30.01,South,175,0.0,0.0,77,0.00,,---,0.00,VWS V14.01,2013-06-15 08:13:00,
2013-06-15 04:18:00,63.4,56.1,30.00,South,175,0.0,0.0,77,0.00,,---,0.00,VWS V14.01,2013-06-15 08:18:00,
2013-06-15 04:24:00,63.3,56.3,30.00,SW,235,0.0,1.0,78,0.00,,---,0.00,VWS V14.01,2013-06-15 08:24:00,
2013-06-15 04:29:00,63.3,56.3,30.00,SW,226,0.0,1.0,78,0.00,,---,0.00,VWS V14.01,2013-06-15 08:29:00,
2013-06-15 04:34:00,63.2,56.2,30.00,SW,226,0.0,0.0,78,0.00,,---,0.00,VWS V14.01,2013-06-15 08:34:00,
2013-06-15 04:39:00,63.1,56.5,30.00,SW,226,0.0,0.0,79,0.00,,---,0.00,VWS V14.01,2013-06-15 08:39:00,
2013-06-15 04:44:00,62.9,56.3,30.01,SW,226,0.0,0.0,79,0.00,,---,0.00,VWS V14.01,2013-06-15 08:44:00,
2013-06-15 04:49:00,62.8,56.2,30.00,SE,126,0.0,1.0,79,0.00,,---,0.00,VWS V14.01,2013-06-15 08:49:00,
2013-06-15 04:54:00,62.6,56.3,30.00,SE,126,0.0,1.0,80,0.00,,---,0.00,VWS V14.01,2013-06-15 08:54:00,
2013-06-15 04:59:00,62.4,56.2,30.00,SE,126,0.0,1.0,80,0.00,,---,0.00,VWS V14.01,2013-06-15 08:59:00,
2013-06-15 05:04:00,62.2,56.0,30.00,SE,125,0.0,0.0,80,0.00,,---,0.00,VWS V14.01,2013-06-15 09:04:00,
2013-06-15 05:09:00,62.1,56.2,30.00,SE,125,0.0,0.0,81,0.00,,---,0.00,VWS V14.01,2013-06-15 09:09:00,
2013-06-15 05:14:00,61.9,56.0,30.00,SE,126,0.0,0.0,81,0.00,,---,0.00,VWS V14.01,2013-06-15 09:14:00,
2013-06-15 05:20:00,61.8,55.9,30.00,SE,125,0.0,0.0,81,0.00,,---,0.00,VWS V14.01,2013-06-15 09:20:00,
2013-06-15 05:25:00,61.6,55.7,30.01,SE,126,0.0,0.0,81,0.00,,---,0.00,VWS V14.01,2013-06-15 09:25:00,
2013-06-15 05:30:00,61.4,55.9,30.01,SE,125,0.0,0.0,82,0.00,,---,0.00,VWS V14.01,2013-06-15 09:30:00,
2013-06-15 05:35:00,61.3,56.1,30.01,SE,126,0.0,0.0,83,0.00,,---,0.00,VWS V14.01,2013-06-15 09:35:00,
2013-06-15 05:40:00,61.3,56.1,30.02,SE,125,0.0,0.0,83,0.00,,---,0.00,VWS V14.01,2013-06-15 09:40:00,
2013-06-15 05:45:00,61.2,56.0,30.02,SE,126,0.0,0.0,83,0.00,,---,0.00,VWS V14.01,2013-06-15 09:45:00,
2013-06-15 05:50:00,61.2,56.3,30.03,SE,126,0.0,0.0,84,0.00,,---,0.00,VWS V14.01,2013-06-15 09:50:00,
2013-06-15 05:55:00,61.0,56.1,30.03,SE,125,0.0,0.0,84,0.00,,---,0.00,VWS V14.01,2013-06-15 09:55:00,
2013-06-15 06:00:00,60.8,55.9,30.03,SE,125,0.0,0.0,84,0.00,,---,0.00,VWS V14.01,2013-06-15 10:00:00,
2013-06-15 06:05:00,60.7,56.2,30.03,SE,126,0.0,0.0,85,0.00,,---,0.00,VWS V14.01,2013-06-15 10:05:00,
2013-06-15 06:10:00,60.6,56.1,30.03,SE,125,0.0,0.0,85,0.00,,---,0.00,VWS V14.01,2013-06-15 10:10:00,
2013-06-15 06:15:00,60.8,56.6,30.04,SE,125,0.0,0.0,86,0.00,,---,0.00,VWS V14.01,2013-06-15 10:15:00,
2013-06-15 06:20:00,60.8,56.6,30.05,SE,125,0.0,0.0,86,0.00,,---,0.00,VWS V14.01,2013-06-15 10:20:00,
2013-06-15 06:26:00,60.8,56.6,30.05,SE,125,0.0,0.0,86,0.00,,---,0.00,VWS V14.01,2013-06-15 10:26:00,
2013-06-15 06:31:00,60.9,56.7,30.05,SE,126,0.0,0.0,86,0.00,,---,0.00,VWS V14.01,2013-06-15 10:31:00,
2013-06-15 06:36:00,61.0,56.8,30.06,SE,126,0.0,0.0,86,0.00,,---,0.00,VWS V14.01,2013-06-15 10:36:00,
2013-06-15 06:41:00,61.2,57.0,30.06,SE,126,0.0,0.0,86,0.00,,---,0.00,VWS V14.01,2013-06-15 10:41:00,
2013-06-15 06:46:00,61.4,57.2,30.06,SE,125,0.0,0.0,86,0.00,,---,0.00,VWS V14.01,2013-06-15 10:46:00,
2013-06-15 06:51:00,61.8,57.2,30.06,ESE,122,0.0,0.0,85,0.00,,---,0.00,VWS V14.01,2013-06-15 10:51:00,
2013-06-15 06:56:00,62.4,57.5,30.06,SE,124,0.0,0.0,84,0.00,,---,0.00,VWS V14.01,2013-06-15 10:56:00,
2013-06-15 07:01:00,63.0,57.8,30.06,SW,232,0.0,0.0,83,0.00,,---,0.00,VWS V14.01,2013-06-15 11:01:00,
2013-06-15 07:07:00,63.5,57.9,30.06,West,267,0.0,1.0,82,0.00,,---,0.00,VWS V14.01,2013-06-15 11:07:00,
2013-06-15 07:12:00,63.9,58.0,30.07,SW,226,0.0,1.0,81,0.00,,---,0.00,VWS V14.01,2013-06-15 11:12:00,
2013-06-15 07:17:00,64.3,57.7,30.07,WNW,295,0.0,1.0,79,0.00,,---,0.00,VWS V14.01,2013-06-15 11:17:00,
2013-06-15 07:22:00,65.2,57.8,30.07,SSW,195,0.0,1.0,77,0.00,,---,0.00,VWS V14.01,2013-06-15 11:22:00,
2013-06-15 07:27:00,65.9,58.1,30.07,South,183,0.0,1.0,76,0.00,,---,0.00,VWS V14.01,2013-06-15 11:27:00,
2013-06-15 07:32:00,66.2,58.0,30.07,WSW,249,0.0,0.0,75,0.00,,---,0.00,VWS V14.01,2013-06-15 11:32:00,
2013-06-15 07:37:00,66.3,58.2,30.07,WSW,249,0.0,1.0,75,0.00,,---,0.00,VWS V14.01,2013-06-15 11:37:00,
2013-06-15 07:42:00,66.5,58.0,30.07,NNW,339,1.0,4.0,74,0.00,,---,0.00,VWS V14.01,2013-06-15 11:42:00,
2013-06-15 07:47:00,67.0,58.1,30.07,WSW,248,0.0,4.0,73,0.00,,---,0.00,VWS V14.01,2013-06-15 11:47:00,
2013-06-15 07:53:00,67.2,58.3,30.08,SSE,150,0.0,4.0,73,0.00,,---,0.00,VWS V14.01,2013-06-15 11:53:00,
2013-06-15 07:58:00,67.5,58.5,30.08,South,176,0.0,4.0,73,0.00,,---,0.00,VWS V14.01,2013-06-15 11:58:00,
2013-06-15 08:03:00,67.7,58.4,30.08,SSW,205,0.0,1.0,72,0.00,,---,0.00,VWS V14.01,2013-06-15 12:03:00,
2013-06-15 08:08:00,68.0,58.3,30.08,WSW,245,0.0,4.0,71,0.00,,---,0.00,VWS V14.01,2013-06-15 12:08:00,
2013-06-15 08:13:00,68.4,58.2,30.08,South,186,0.0,4.0,70,0.00,,---,0.00,VWS V14.01,2013-06-15 12:13:00,
2013-06-15 08:18:00,68.8,58.6,30.08,WSW,239,1.0,4.0,70,0.00,,---,0.00,VWS V14.01,2013-06-15 12:18:00,
2013-06-15 08:23:00,69.2,59.0,30.08,ESE,113,1.0,4.0,70,0.00,,---,0.00,VWS V14.01,2013-06-15 12:23:00,
2013-06-15 08:28:00,69.5,59.3,30.08,SSW,210,2.0,4.0,70,0.00,,---,0.00,VWS V14.01,2013-06-15 12:28:00,
2013-06-15 08:33:00,69.7,59.5,30.08,WNW,282,0.0,2.0,70,0.00,,---,0.00,VWS V14.01,2013-06-15 12:33:00,
2013-06-15 08:39:00,70.0,59.4,30.09,WSW,245,0.0,4.0,69,0.00,,---,0.00,VWS V14.01,2013-06-15 12:39:00,
2013-06-15 08:44:00,70.4,59.3,30.09,NNE,32,1.0,4.0,68,0.00,,---,0.00,VWS V14.01,2013-06-15 12:44:00,
2013-06-15 08:49:00,70.9,60.2,30.09,NNE,32,0.0,4.0,69,0.00,,---,0.00,VWS V14.01,2013-06-15 12:49:00,
2013-06-15 08:54:00,71.4,59.9,30.09,NW,323,0.0,4.0,67,0.00,,---,0.00,VWS V14.01,2013-06-15 12:54:00,
2013-06-15 08:59:00,71.5,59.1,30.09,NNE,33,1.0,5.0,65,0.00,,---,0.00,VWS V14.01,2013-06-15 12:59:00,
2013-06-15 09:04:00,71.5,59.1,30.09,WSW,250,0.0,2.0,65,0.00,,---,0.00,VWS V14.01,2013-06-15 13:04:00,
2013-06-15 09:09:00,71.8,60.3,30.09,SW,236,0.0,2.0,67,0.00,,---,0.00,VWS V14.01,2013-06-15 13:09:00,
2013-06-15 09:14:00,72.1,60.1,30.09,NE,41,3.0,7.0,66,0.00,,---,0.00,VWS V14.01,2013-06-15 13:14:00,
2013-06-15 09:19:00,72.3,59.5,30.08,SW,236,2.0,7.0,64,0.00,,---,0.00,VWS V14.01,2013-06-15 13:19:00,
2013-06-15 09:25:00,72.6,59.3,30.08,NNE,15,0.0,7.0,63,0.00,,---,0.00,VWS V14.01,2013-06-15 13:25:00,
2013-06-15 09:30:00,73.4,60.9,30.09,West,280,0.0,7.0,65,0.00,,---,0.00,VWS V14.01,2013-06-15 13:30:00,
2013-06-15 09:35:00,74.1,60.7,30.09,NE,52,1.0,3.0,63,0.00,,---,0.00,VWS V14.01,2013-06-15 13:35:00,
2013-06-15 09:40:00,74.7,61.3,30.09,East,84,0.0,3.0,63,0.00,,---,0.00,VWS V14.01,2013-06-15 13:40:00,
2013-06-15 09:45:00,75.4,60.6,30.08,SSE,150,2.0,3.0,60,0.00,,---,0.00,VWS V14.01,2013-06-15 13:45:00,
2013-06-15 09:50:00,75.6,59.8,30.09,NNE,18,2.0,4.0,58,0.00,,---,0.00,VWS V14.01,2013-06-15 13:50:00,
2013-06-15 09:55:00,75.4,59.6,30.09,North,351,1.0,4.0,58,0.00,,---,0.00,VWS V14.01,2013-06-15 13:55:00,
2013-06-15 10:00:00,75.7,60.4,30.09,West,267,0.0,4.0,59,0.00,,---,0.00,VWS V14.01,2013-06-15 14:00:00,
2013-06-15 10:05:00,76.2,60.4,30.09,WSW,246,3.0,5.0,58,0.00,,---,0.00,VWS V14.01,2013-06-15 14:05:00,
2013-06-15 10:10:00,76.5,60.6,30.09,NNE,13,0.0,5.0,58,0.00,,---,0.00,VWS V14.01,2013-06-15 14:10:00,
2013-06-15 10:15:00,77.2,59.8,30.09,North,11,0.0,5.0,55,0.00,,---,0.00,VWS V14.01,2013-06-15 14:15:00,
2013-06-15 10:21:00,76.9,59.0,30.09,West,269,0.0,5.0,54,0.00,,---,0.00,VWS V14.01,2013-06-15 14:21:00,
2013-06-15 10:28:00,77.0,60.1,30.09,NNE,26,2.0,3.0,56,0.00,,---,0.00,VWS V14.01,2013-06-15 14:28:00,
2013-06-15 10:33:00,77.3,59.9,30.09,West,276,1.0,2.0,55,0.00,,---,0.00,VWS V14.01,2013-06-15 14:33:00,
2013-06-15 10:38:00,77.6,59.1,30.08,West,264,1.0,4.0,53,0.00,,---,0.00,VWS V14.01,2013-06-15 14:38:00,
2013-06-15 10:43:00,78.0,60.5,30.08,WNW,300,1.0,6.0,55,0.00,,---,0.00,VWS V14.01,2013-06-15 14:43:00,
2013-06-15 10:48:00,77.8,58.2,30.08,NNE,27,1.0,6.0,51,0.00,,---,0.00,VWS V14.01,2013-06-15 14:48:00,
2013-06-15 10:53:00,77.7,58.2,30.08,North,349,5.0,6.0,51,0.00,,---,0.00,VWS V14.01,2013-06-15 14:53:00,
2013-06-15 10:59:00,77.7,59.2,30.07,SSW,198,2.0,6.0,53,0.00,,---,0.00,VWS V14.01,2013-06-15 14:59:00,
2013-06-15 11:04:00,78.2,59.2,30.07,SW,232,0.0,2.0,52,0.00,,---,0.00,VWS V14.01,2013-06-15 15:04:00,
2013-06-15 11:09:00,78.5,59.4,30.07,West,267,0.0,4.0,52,0.00,,---,0.00,VWS V14.01,2013-06-15 15:09:00,
2013-06-15 11:14:00,79.2,59.5,30.07,SW,235,2.0,4.0,51,0.00,,---,0.00,VWS V14.01,2013-06-15 15:14:00,
2013-06-15 11:19:00,79.4,59.7,30.08,ENE,63,1.0,4.0,51,0.00,,---,0.00,VWS V14.01,2013-06-15 15:19:00,
2013-06-15 11:24:00,79.5,58.1,30.08,WSW,250,1.0,4.0,48,0.00,,---,0.00,VWS V14.01,2013-06-15 15:24:00,
2013-06-15 11:29:00,79.4,60.3,30.07,West,266,0.0,4.0,52,0.00,,---,0.00,VWS V14.01,2013-06-15 15:29:00,
2013-06-15 11:34:00,79.6,59.3,30.07,WSW,250,1.0,5.0,50,0.00,,---,0.00,VWS V14.01,2013-06-15 15:34:00,
2013-06-15 11:39:00,79.7,60.0,30.07,South,174,0.0,5.0,51,0.00,,---,0.00,VWS V14.01,2013-06-15 15:39:00,
2013-06-15 11:45:00,80.2,59.9,30.07,NE,44,3.0,5.0,50,0.00,,---,0.00,VWS V14.01,2013-06-15 15:45:00,
2013-06-15 11:50:00,79.9,59.0,30.07,WSW,248,1.0,5.0,49,0.00,,---,0.00,VWS V14.01,2013-06-15 15:50:00,
2013-06-15 11:55:00,80.0,59.1,30.07,ENE,68,1.0,5.0,49,0.00,,---,0.00,VWS V14.01,2013-06-15 15:55:00,
2013-06-15 12:00:00,80.0,59.1,30.07,SW,221,1.0,5.0,49,0.00,,---,0.00,VWS V14.01,2013-06-15 16:00:00,
2013-06-15 12:05:00,80.0,59.1,30.07,WSW,244,0.0,2.0,49,0.00,,---,0.00,VWS V14.01,2013-06-15 16:05:00,
2013-06-15 12:10:00,80.4,60.1,30.07,WNW,287,1.0,3.0,50,0.00,,---,0.00,VWS V14.01,2013-06-15 16:10:00,
2013-06-15 12:15:00,80.8,61.0,30.07,West,280,2.0,3.0,51,0.00,,---,0.00,VWS V14.01,2013-06-15 16:15:00,
2013-06-15 12:20:00,80.8,58.7,30.07,SW,229,0.0,4.0,47,0.00,,---,0.00,VWS V14.01,2013-06-15 16:20:00,
2013-06-15 12:26:00,80.8,59.9,30.07,SW,214,1.0,4.0,49,0.00,,---,0.00,VWS V14.01,2013-06-15 16:26:00,
2013-06-15 12:31:00,81.2,61.4,30.07,SW,226,0.0,4.0,51,0.00,,---,0.00,VWS V14.01,2013-06-15 16:31:00,
2013-06-15 12:36:00,81.7,60.1,30.06,ESE,110,0.0,3.0,48,0.00,,---,0.00,VWS V14.01,2013-06-15 16:36:00,
2013-06-15 12:41:00,82.3,61.2,30.06,SW,228,1.0,3.0,49,0.00,,---,0.00,VWS V14.01,2013-06-15 16:41:00,
2013-06-15 12:46:00,81.8,59.6,30.06,West,260,0.0,4.0,47,0.00,,---,0.00,VWS V14.01,2013-06-15 16:46:00,
2013-06-15 12:51:00,81.9,59.7,30.06,West,260,1.0,5.0,47,0.00,,---,0.00,VWS V14.01,2013-06-15 16:51:00,
2013-06-15 12:56:00,81.9,59.7,30.06,WSW,243,1.0,5.0,47,0.00,,---,0.00,VWS V14.01,2013-06-15 16:56:00,
2013-06-15 13:01:00,82.7,59.8,30.06,NNE,19,1.0,1.0,46,0.00,,---,0.00,VWS V14.01,2013-06-15 17:01:00,
2013-06-15 13:06:00,83.1,60.8,30.05,WNW,288,1.0,3.0,47,0.00,,---,0.00,VWS V14.01,2013-06-15 17:06:00,
2013-06-15 13:12:00,82.7,58.6,30.06,NE,49,0.0,4.0,44,0.00,,---,0.00,VWS V14.01,2013-06-15 17:12:00,
2013-06-15 13:17:00,82.9,61.2,30.05,NW,326,1.0,4.0,48,0.00,,---,0.00,VWS V14.01,2013-06-15 17:17:00,
2013-06-15 13:22:00,82.8,59.9,30.05,ESE,117,0.0,5.0,46,0.00,,---,0.00,VWS V14.01,2013-06-15 17:22:00,
2013-06-15 13:27:00,83.8,60.2,30.05,West,267,2.0,5.0,45,0.00,,---,0.00,VWS V14.01,2013-06-15 17:27:00,
2013-06-15 13:32:00,83.5,59.3,30.05,SSE,148,0.0,1.0,44,0.00,,---,0.00,VWS V14.01,2013-06-15 17:32:00,
2013-06-15 13:37:00,83.1,57.7,30.05,West,264,1.0,3.0,42,0.00,,---,0.00,VWS V14.01,2013-06-15 17:37:00,
2013-06-15 13:52:00,82.1,61.1,30.04,West,271,1.0,1.0,49,0.00,,---,0.00,VWS V14.01,2013-06-15 17:52:00,
2013-06-15 13:57:00,82.0,59.2,30.04,West,264,0.0,3.0,46,0.00,,---,0.00,VWS V14.01,2013-06-15 17:57:00,
2013-06-15 14:02:00,82.5,60.3,30.03,West,273,3.0,4.0,47,0.00,,---,0.00,VWS V14.01,2013-06-15 18:02:00,
2013-06-15 14:07:00,82.1,59.3,30.03,North,357,0.0,6.0,46,0.00,,---,0.00,VWS V14.01,2013-06-15 18:07:00,
2013-06-15 14:12:00,82.4,61.3,30.03,WSW,248,0.0,6.0,49,0.00,,---,0.00,VWS V14.01,2013-06-15 18:12:00,
2013-06-15 14:17:00,83.4,60.5,30.03,West,264,0.0,6.0,46,0.00,,---,0.00,VWS V14.01,2013-06-15 18:17:00,
2013-06-15 14:22:00,84.0,62.2,30.03,WSW,243,2.0,6.0,48,0.00,,---,0.00,VWS V14.01,2013-06-15 18:22:00,
2013-06-15 14:27:00,84.1,61.7,30.03,East,89,0.0,6.0,47,0.00,,---,0.00,VWS V14.01,2013-06-15 18:27:00,
2013-06-15 23:00:00,67.4,58.8,30.03,WNW,300,0.0,0.0,74,0.00,,---,0.00,VWS V14.01,2013-06-16 03:00:00,
2013-06-15 23:20:00,67.1,58.9,30.03,WNW,300,0.0,0.0,75,0.00,,---,0.00,VWS V14.01,2013-06-16 03:20:00,
2013-06-15 23:25:00,67.0,58.8,30.03,WNW,300,0.0,0.0,75,0.00,,---,0.00,VWS V14.01,2013-06-16 03:25:00,
2013-06-15 23:30:00,66.9,59.1,30.03,WNW,300,0.0,0.0,76,0.00,,---,0.00,VWS V14.01,2013-06-16 03:30:00,
2013-06-15 23:35:00,66.7,58.9,30.03,WNW,299,0.0,0.0,76,0.00,,---,0.00,VWS V14.01,2013-06-16 03:35:00,
2013-06-15 23:41:00,66.7,59.3,30.03,WNW,299,0.0,0.0,77,0.00,,---,0.00,VWS V14.01,2013-06-16 03:41:00,
2013-06-15 23:46:00,66.6,59.2,30.03,WNW,300,0.0,0.0,77,0.00,,---,0.00,VWS V14.01,2013-06-16 03:46:00,
2013-06-15 23:51:00,66.4,59.0,30.03,WNW,299,0.0,0.0,77,0.00,,---,0.00,VWS V14.01,2013-06-16 03:51:00,